GW2953 Weather Reports


Display with metric or nautical units.
time (UTC)temp
F
wind
direction
speed
MPH
gust
MPH
rain 1hr
in
rain 24hr
in
rain mn
in
humidity
%
barometer
mb
20260904131655 42 62 0.0 2.0 0.00 0.00 0.00 98 1013.1
20260904131151 42 58 1.0 2.0 0.00 0.00 0.00 98 1012.6
20260904130651 42 164 0.0 2.0 0.00 0.00 0.00 98 1013.0
20260904130150 42 122 0.0 2.0 0.00 0.00 0.00 98 1012.8
20260904125647 42 299 0.0 2.0 0.00 0.00 0.00 98 1012.6
20260904125142 42 32 1.0 3.0 0.00 0.00 0.00 98 1012.8
20260904124637 42 34 0.0 1.0 0.00 0.00 0.00 98 1012.8
20260904124132 42 100 2.0 3.0 0.00 0.00 0.00 98 1012.5
20260904123627 42 195 0.0 2.0 0.00 0.00 0.00 98 1012.8
20260904123123 42 211 2.0 2.0 0.00 0.00 0.00 98 1012.9
20260904122617 42 25 0.0 1.0 0.00 0.00 0.00 98 1012.5
20260904122112 42 117 0.0 2.0 0.00 0.00 0.00 98 1012.6
20260904121608 42 180 0.0 2.0 0.00 0.00 0.00 98 1012.8
20260904121103 42 275 2.0 3.0 0.00 0.00 0.00 98 1012.6
20260904120559 42 269 0.0 2.0 0.00 0.00 0.00 98 1012.6
20260904120055 42 35 2.0 3.0 0.00 0.00 0.00 98 1012.6
20260904115550 42 71 4.0 5.0 0.00 0.00 0.00 98 1012.5
20260904115044 42 304 1.0 3.0 0.00 0.00 0.00 98 1012.6
20260904114539 42 264 1.0 2.0 0.00 0.00 0.00 98 1012.8
20260904114038 42 46 2.0 4.0 0.00 0.00 0.00 98 1012.4
20260904113533 43 292 1.0 2.0 0.00 0.00 0.00 98 1012.5
20260904113033 43 305 1.0 2.0 0.00 0.00 0.00 98 1012.4
20260904112528 43 113 1.0 3.0 0.00 0.00 0.00 98 1012.5
20260904112024 42 258 1.0 2.0 0.00 0.00 0.00 98 1012.6
20260904111520 42 256 0.0 2.0 0.00 0.00 0.00 98 1012.6
20260904111015 42 126 0.0 2.0 0.00 0.00 0.00 98 1012.5
20260904110514 43 75 1.0 3.0 0.00 0.00 0.00 98 1012.3
20260904110010 43 57 1.0 2.0 0.00 0.00 0.00 98 1012.3
20260904105504 43 300 1.0 3.0 0.00 0.00 0.00 98 1012.2
20260904104959 43 112 2.0 3.0 0.00 0.00 0.00 98 1012.2
20260904104454 43 266 0.0 3.0 0.00 0.00 0.00 98 1012.3
20260904103950 43 254 0.0 2.0 0.00 0.00 0.00 98 1012.4
20260904103446 43 77 2.0 3.0 0.00 0.00 0.00 98 1012.3
20260904102942 43 101 1.0 2.0 0.00 0.00 0.00 98 1012.3
20260904102437 43 89 2.0 2.0 0.00 0.00 0.00 97 1012.4
20260904101932 44 29 0.0 3.0 0.00 0.00 0.00 98 1012.2
20260904101430 44 72 1.0 2.0 0.00 0.00 0.00 97 1012.1
20260904100925 44 235 0.0 2.0 0.00 0.00 0.00 98 1011.9
20260904100420 44 320 2.0 4.0 0.00 0.00 0.00 98 1012.2
20260904095914 44 272 4.0 5.0 0.00 0.00 0.00 97 1012.2
20260904095409 44 268 1.0 3.0 0.00 0.00 0.00 97 1012.0
20260904094904 44 343 0.0 0.0 0.00 0.00 0.00 97 1012.1
20260904094359 44 334 0.0 2.0 0.00 0.00 0.00 97 1012.1
20260904093856 44 164 0.0 2.0 0.00 0.00 0.00 97 1012.2
20260904093355 44 150 0.0 1.0 0.00 0.00 0.00 97 1012.0
20260904092851 44 32 2.0 3.0 0.00 0.00 0.00 97 1012.1
20260904092348 45 160 1.0 2.0 0.00 0.00 0.00 97 1012.3
20260904091843 45 291 0.0 2.0 0.00 0.00 0.00 97 1012.2
20260904091339 45 28 2.0 4.0 0.00 0.00 0.00 97 1012.2
20260904090833 45 312 2.0 3.0 0.00 0.00 0.00 97 1012.3
20260904090330 45 315 0.0 5.0 0.00 0.00 0.00 97 1012.1
20260904085824 45 306 2.0 5.0 0.00 0.00 0.00 97 1012.3
20260904085319 44 32 0.0 1.0 0.00 0.00 0.00 97 1012.3
20260904084814 45 347 1.0 3.0 0.00 0.00 0.00 97 1012.2
20260904084310 45 271 0.0 4.0 0.00 0.00 0.00 97 1012.2
20260904083806 45 154 1.0 3.0 0.00 0.00 0.00 97 1012.2
20260904083302 45 321 0.0 2.0 0.00 0.00 0.00 97 1012.2
20260904082757 45 74 2.0 4.0 0.00 0.00 0.00 97 1012.3
20260904082252 45 302 1.0 2.0 0.00 0.00 0.00 97 1012.4
20260904081747 45 180 0.0 2.0 0.00 0.00 0.00 97 1012.3
20260904081243 45 53 0.0 2.0 0.00 0.00 0.00 97 1012.2
20260904080738 45 240 0.0 2.0 0.00 0.00 0.00 97 1012.0
20260904080234 46 174 0.0 3.0 0.00 0.00 0.00 97 1012.4
20260904075730 45 189 1.0 2.0 0.00 0.00 0.00 97 1012.4
20260904075225 46 282 2.0 3.0 0.00 0.00 0.00 96 1012.2
20260904074724 46 306 2.0 3.0 0.00 0.00 0.00 96 1012.4
20260904074218 46 104 0.0 1.0 0.00 0.00 0.00 96 1012.3
20260904073714 46 84 1.0 2.0 0.00 0.00 0.00 96 1012.2
20260904073210 46 57 0.0 2.0 0.00 0.00 0.00 96 1012.1
20260904072705 46 17 2.0 2.0 0.00 0.00 0.00 96 1012.1
20260904072200 46 323 0.0 2.0 0.00 0.00 0.00 96 1012.0
20260904071656 47 213 2.0 3.0 0.00 0.00 0.00 96 1012.0
20260904071150 46 345 1.0 3.0 0.00 0.00 0.00 96 1012.2
20260904070650 46 8 1.0 2.0 0.00 0.00 0.00 96 1012.2
20260904070144 46 31 0.0 4.0 0.00 0.00 0.00 96 1011.9
20260904065638 47 132 2.0 2.0 0.00 0.35 0.35 96 1011.9
20260904065136 47 316 1.0 3.0 0.00 0.35 0.35 96 1011.9
20260904064630 47 326 0.0 2.0 0.00 0.35 0.35 95 1011.9
20260904064125 47 268 3.0 4.0 0.00 0.35 0.35 95 1011.7
20260904063621 47 322 1.0 3.0 0.00 0.35 0.35 95 1011.6
20260904063116 47 315 0.0 2.0 0.00 0.35 0.35 95 1011.7
20260904062613 47 41 2.0 3.0 0.00 0.35 0.35 95 1011.7
20260904062108 48 59 2.0 3.0 0.00 0.35 0.35 95 1011.7
20260904061603 47 354 1.0 2.0 0.00 0.35 0.35 95 1011.8
20260904061100 48 166 0.0 5.0 0.00 0.35 0.35 95 1011.9
20260904060555 48 246 0.0 1.0 0.00 0.35 0.35 94 1011.6
20260904060051 48 326 0.0 3.0 0.00 0.35 0.35 94 1011.8
20260904055546 48 60 2.0 2.0 0.00 0.35 0.35 94 1011.6
20260904055041 48 282 0.0 3.0 0.00 0.35 0.35 94 1011.7
20260904054537 48 246 1.0 3.0 0.00 0.35 0.35 94 1011.6
20260904054033 49 19 1.0 3.0 0.00 0.35 0.35 93 1011.8
20260904053532 49 146 2.0 4.0 0.00 0.35 0.35 93 1011.6
20260904053028 49 253 2.0 2.0 0.00 0.35 0.35 93 1011.7
20260904052524 49 293 2.0 4.0 0.00 0.35 0.35 93 1011.7
20260904052020 49 255 0.0 2.0 0.00 0.35 0.35 92 1011.8
20260904051517 49 38 1.0 2.0 0.00 0.35 0.35 92 1011.9
20260904051015 50 62 2.0 3.0 0.00 0.35 0.35 91 1011.6
20260904050511 50 347 0.0 3.0 0.00 0.35 0.35 91 1011.6
20260904050008 50 66 3.0 3.0 0.00 0.35 0.35 90 1011.7
20260904045502 50 328 1.0 2.0 0.00 0.35 0.35 89 1011.7
20260904044957 51 273 3.0 5.0 0.00 0.35 0.35 89 1011.4
20260904044453 51 281 3.0 5.0 0.00 0.35 0.35 90 1011.5
20260904043949 51 176 0.0 3.0 0.00 0.35 0.35 89 1011.5
20260904043445 51 279 2.0 3.0 0.00 0.35 0.35 89 1011.5
20260904042940 52 60 2.0 3.0 0.00 0.35 0.35 88 1011.5
20260904042437 52 260 2.0 5.0 0.00 0.35 0.35 86 1011.6
20260904041931 52 66 2.0 3.0 0.00 0.35 0.35 85 1011.5
20260904041428 53 131 2.0 4.0 0.00 0.35 0.35 82 1011.4
20260904040924 55 258 1.0 4.0 0.00 0.35 0.35 76 1011.3
20260904040423 54 266 5.0 9.0 0.00 0.35 0.35 80 1011.3
20260904035920 54 319 4.0 6.0 0.00 0.35 0.35 81 1011.1
20260904035415 55 157 0.0 3.0 0.00 0.35 0.35 78 1011.1
20260904034914 57 157 3.0 6.0 0.00 0.35 0.35 72 1011.0
20260904034410 57 203 1.0 5.0 0.00 0.35 0.35 70 1011.1
20260904033905 57 247 3.0 8.0 0.00 0.35 0.35 72 1011.2
20260904033402 56 154 2.0 12.0 0.00 0.35 0.35 71 1010.8
20260904032857 56 257 3.0 4.0 0.00 0.35 0.35 76 1010.6
20260904032352 58 78 3.0 3.0 0.00 0.35 0.35 69 1010.6
20260904031846 59 229 4.0 11.0 0.00 0.35 0.35 67 1010.6
20260904031342 59 210 3.0 11.0 0.00 0.35 0.35 65 1010.5
20260904030838 58 212 4.0 10.0 0.00 0.35 0.35 68 1010.6
20260904030333 58 246 4.0 10.0 0.00 0.35 0.35 68 1010.5
20260904025829 56 226 7.0 8.0 0.00 0.35 0.35 76 1010.3
20260904025325 58 266 4.0 7.0 0.00 0.35 0.35 71 1010.2
20260904024824 57 196 2.0 7.0 0.00 0.35 0.35 72 1010.4
20260904024319 58 243 5.0 7.0 0.00 0.35 0.35 72 1010.2
20260904023816 56 259 4.0 7.0 0.00 0.35 0.35 78 1010.3
20260904023312 56 258 4.0 8.0 0.00 0.35 0.35 79 1010.6
20260904022811 59 221 5.0 10.0 0.00 0.35 0.35 66 1010.5
20260904022308 59 277 4.0 11.0 0.00 0.35 0.35 67 1010.4
20260904021804 59 237 3.0 4.0 0.00 0.35 0.35 67 1010.5
20260904021259 59 249 5.0 7.0 0.00 0.35 0.35 68 1010.5
20260904020754 59 248 1.0 7.0 0.00 0.35 0.35 69 1010.4
20260904020254 58 212 5.0 7.0 0.00 0.35 0.35 75 1010.5
20260904015753 60 228 3.0 11.0 0.00 0.35 0.35 66 1010.4
20260904015248 60 214 9.0 14.0 0.00 0.35 0.35 65 1010.5
20260904014746 59 216 6.0 9.0 0.00 0.35 0.35 66 1010.3
20260904014242 60 181 3.0 11.0 0.00 0.35 0.35 67 1010.3
20260904013738 60 225 3.0 11.0 0.00 0.35 0.35 74 1010.3
20260904013234 60 179 1.0 14.0 0.00 0.35 0.35 65 1010.1
20260904012729 60 228 6.0 8.0 0.00 0.35 0.35 66 1010.3
20260904012229 59 260 9.0 12.0 0.00 0.35 0.35 68 1010.4
20260904011728 61 222 5.0 14.0 0.00 0.35 0.35 63 1010.3
20260904011224 61 252 2.0 14.0 0.00 0.35 0.35 65 1010.3
20260904010718 61 206 4.0 10.0 0.00 0.35 0.35 65 1010.4
20260904010215 61 246 7.0 11.0 0.00 0.35 0.35 69 1010.1
20260904005710 63 199 6.0 11.0 0.00 0.35 0.35 61 1010.2
20260904005206 63 209 6.0 12.0 0.00 0.35 0.35 62 1010.3
20260904004706 63 218 8.0 10.0 0.00 0.35 0.35 63 1010.1
20260904004201 64 193 2.0 7.0 0.00 0.35 0.35 63 1010.4
20260904003656 63 183 2.0 7.0 0.00 0.35 0.35 63 1010.1
20260904003153 63 227 8.0 14.0 0.00 0.35 0.35 65 1010.2
20260904002648 63 176 5.0 13.0 0.00 0.35 0.35 62 1010.4
20260904002143 64 225 3.0 7.0 0.00 0.35 0.35 65 1010.4
20260904001638 63 115 3.0 9.0 0.00 0.35 0.35 67 1010.4
20260904001137 63 114 4.0 10.0 0.00 0.35 0.35 64 1010.5
20260904000633 62 173 7.0 13.0 0.00 0.35 0.35 66 1010.6
20260904000128 62 254 1.0 3.0 0.00 0.35 0.35 69 1010.4
20260903235628 60 176 4.0 6.0 0.00 0.35 0.35 71 1010.4
20260903235124 60 189 2.0 9.0 0.00 0.35 0.35 71 1010.4
20260903234619 60 283 0.0 7.0 0.00 0.35 0.35 73 1010.6
20260903234115 60 185 6.0 9.0 0.00 0.35 0.35 75 1010.4
20260903233610 60 172 4.0 8.0 0.00 0.35 0.35 76 1010.8
20260903233101 60 198 5.0 12.0 0.00 0.35 0.35 75 1010.8
20260903232555 60 73 1.0 5.0 0.00 0.35 0.35 77 1010.9
20260903232051 60 285 4.0 11.0 0.00 0.35 0.35 73 1010.9
20260903231545 60 119 3.0 9.0 0.00 0.35 0.35 74 1010.9
20260903231039 60 146 6.0 9.0 0.00 0.35 0.35 78 1010.9
20260903230536 60 173 5.0 7.0 0.00 0.35 0.35 79 1011.1
20260903230034 59 279 2.0 13.0 0.00 0.35 0.35 81 1011.1
20260903225532 59 100 1.0 8.0 0.00 0.35 0.35 80 1011.0
20260903225028 59 169 2.0 12.0 0.00 0.35 0.35 81 1011.2
20260903224524 60 135 6.0 7.0 0.00 0.35 0.35 82 1011.2
20260903224020 60 155 1.0 8.0 0.00 0.35 0.35 82 1011.0
20260903223519 59 177 5.0 11.0 0.00 0.35 0.35 83 1011.1
20260903223018 59 224 4.0 7.0 0.00 0.35 0.35 85 1011.0
20260903222514 59 225 0.0 4.0 0.00 0.35 0.35 85 1011.1
20260903222012 59 172 4.0 8.0 0.00 0.35 0.35 84 1011.1
20260903221508 58 258 1.0 6.0 0.00 0.35 0.35 86 1011.3
20260903221004 59 224 3.0 5.0 0.00 0.35 0.35 89 1011.1
20260903220459 58 154 0.0 3.0 0.00 0.35 0.35 90 1011.3
20260903215956 57 200 3.0 6.0 0.00 0.35 0.35 90 1011.3
20260903215453 58 255 2.0 4.0 0.00 0.35 0.35 93 1011.5
20260903214951 57 288 2.0 3.0 0.00 0.35 0.35 95 1011.6
20260903214446 57 195 1.0 5.0 0.00 0.35 0.35 96 1011.5
20260903213941 57 124 2.0 6.0 0.00 0.35 0.35 97 1011.4
20260903213437 56 89 0.0 6.0 0.00 0.35 0.35 97 1011.5
20260903212933 57 79 2.0 3.0 0.00 0.35 0.35 98 1011.5
20260903212428 57 42 3.0 5.0 0.00 0.35 0.35 98 1011.4
20260903211928 57 78 1.0 3.0 0.00 0.35 0.35 98 1011.4
20260903211424 57 81 1.0 3.0 0.00 0.35 0.35 98 1011.3
20260903210920 57 142 0.0 3.0 0.00 0.35 0.35 98 1011.4
20260903210419 57 199 0.0 2.0 0.00 0.35 0.35 98 1011.4
20260903205914 57 130 0.0 3.0 0.00 0.35 0.35 98 1011.4
20260903205414 57 116 1.0 2.0 0.00 0.35 0.35 98 1011.4
20260903204909 57 147 0.0 2.0 0.00 0.35 0.35 98 1011.3
20260903204405 56 248 0.0 1.0 0.00 0.35 0.35 98 1011.4
20260903203900 56 233 0.0 1.0 0.00 0.35 0.35 98 1011.5
20260903203356 56 206 0.0 2.0 0.00 0.35 0.35 98 1011.5
20260903202849 57 89 0.0 2.0 0.00 0.35 0.35 98 1011.5
20260903202346 56 58 0.0 3.0 0.00 0.35 0.35 98 1011.5
20260903201845 56 86 3.0 3.0 0.00 0.35 0.35 98 1011.7
20260903201341 56 86 1.0 3.0 0.00 0.35 0.35 98 1011.6
20260903200840 56 102 1.0 3.0 0.00 0.35 0.35 98 1011.5
20260903200335 56 150 0.0 3.0 0.00 0.35 0.35 98 1011.7
20260903195830 56 113 2.0 3.0 0.00 0.35 0.35 98 1011.7
20260903195326 56 171 2.0 4.0 0.00 0.35 0.35 98 1011.7
20260903194821 56 117 0.0 2.0 0.02 0.35 0.35 99 1011.6
20260903194316 56 152 2.0 3.0 0.02 0.35 0.35 98 1011.6
20260903193812 56 88 2.0 3.0 0.00 0.34 0.34 98 1011.8
20260903193308 56 82 2.0 3.0 0.00 0.34 0.34 98 1011.8
20260903192803 56 117 0.0 1.0 0.00 0.34 0.34 98 1011.9
20260903192259 56 65 1.0 2.0 0.02 0.34 0.34 98 1011.9
20260903191755 56 84 1.0 2.0 0.02 0.34 0.34 98 1011.9
20260903191250 55 87 2.0 3.0 0.00 0.34 0.34 98 1011.9
20260903190745 55 89 2.0 3.0 0.02 0.34 0.34 98 1012.2
20260903190245 55 59 1.0 2.0 0.02 0.34 0.34 98 1012.3
20260903185740 55 73 4.0 5.0 0.02 0.34 0.34 98 1012.2
20260903185239 55 212 0.0 2.0 0.02 0.34 0.34 98 1012.2
20260903184735 56 166 0.0 3.0 0.02 0.33 0.33 98 1012.3
20260903184232 56 85 2.0 3.0 0.05 0.33 0.33 98 1012.2
20260903183727 56 65 0.0 2.0 0.02 0.32 0.32 98 1012.2
20260903183221 55 79 2.0 3.0 0.07 0.32 0.32 98 1012.1
20260903182720 56 80 2.0 3.0 0.05 0.32 0.32 98 1012.4
20260903182215 55 134 1.0 2.0 0.02 0.31 0.31 98 1012.2
20260903181714 55 144 1.0 2.0 0.02 0.31 0.31 98 1012.4
20260903181209 55 71 1.0 3.0 0.05 0.31 0.31 98 1012.3
20260903180704 55 102 2.0 2.0 0.05 0.30 0.30 98 1012.2
20260903180204 56 94 1.0 3.0 0.05 0.30 0.30 98 1012.2
20260903175703 55 73 1.0 2.0 0.05 0.29 0.29 98 1012.2
20260903175157 56 86 2.0 2.0 0.05 0.29 0.29 98 1012.3
20260903174651 56 77 2.0 3.0 0.02 0.29 0.29 98 1012.3
20260903174146 55 65 1.0 3.0 0.00 0.28 0.28 98 1012.3
20260903173641 56 118 1.0 2.0 0.00 0.28 0.28 98 1012.2
20260903173138 55 50 0.0 1.0 0.02 0.28 0.28 98 1012.3
20260903172637 55 57 0.0 2.0 0.02 0.28 0.28 98 1012.2
20260903172133 55 241 2.0 3.0 0.02 0.28 0.28 97 1012.1
20260903171632 55 303 1.0 3.0 0.05 0.28 0.28 98 1012.1
20260903171129 55 141 0.0 3.0 0.05 0.28 0.28 98 1012.2
20260903170627 55 349 1.0 3.0 0.05 0.27 0.27 97 1012.2
20260903170123 55 118 1.0 3.0 0.02 0.27 0.27 97 1012.1
20260903165621 55 329 0.0 3.0 0.05 0.26 0.26 98 1012.2
20260903165116 55 212 5.0 5.0 0.07 0.26 0.26 97 1012.4
20260903164610 54 299 0.0 1.0 0.05 0.26 0.26 98 1012.2
20260903164106 54 337 3.0 9.0 0.07 0.25 0.25 98 1012.2
20260903163601 55 273 4.0 7.0 0.02 0.24 0.24 98 1012.3
20260903163057 55 165 3.0 4.0 0.00 0.24 0.24 98 1012.3
20260903162553 55 279 0.0 3.0 0.00 0.24 0.24 99 1012.2
20260903162049 54 288 2.0 3.0 0.00 0.24 0.24 98 1012.1
20260903161544 55 245 3.0 3.0 0.00 0.24 0.24 98 1012.1
20260903161040 55 241 2.0 3.0 0.02 0.24 0.24 98 1012.3
20260903160538 54 237 0.0 2.0 0.05 0.24 0.24 99 1012.4
20260903160033 55 252 3.0 5.0 0.05 0.24 0.24 99 1012.6
20260903155532 55 252 3.0 5.0 0.07 0.23 0.23 99 1012.4
20260903155027 54 246 1.0 3.0 0.09 0.23 0.23 99 1012.5
20260903154518 54 249 6.0 10.0 0.12 0.22 0.22 99 1012.5
20260903154015 55 151 2.0 4.0 0.09 0.21 0.21 99 1012.5
20260903153509 55 158 2.0 3.0 0.12 0.20 0.20 99 1012.4
20260903153005 55 147 0.0 1.0 0.12 0.19 0.19 99 1012.6
20260903152500 55 113 0.0 1.0 0.09 0.18 0.18 99 1012.5
20260903151956 55 113 0.0 1.0 0.05 0.17 0.17 99 1012.5
20260903151450 54 147 0.0 1.0 0.02 0.16 0.16 99 1012.4
20260903150945 54 147 0.0 1.0 0.02 0.16 0.16 99 1012.5
20260903150439 55 326 0.0 1.0 0.07 0.16 0.16 99 1012.3
20260903145934 55 309 0.0 0.0 0.07 0.15 0.15 99 1012.5
20260903145430 55 195 0.0 2.0 0.05 0.15 0.15 99 1012.5
20260903144929 55 209 0.0 1.0 0.00 0.14 0.14 99 1012.5
20260903144424 55 129 0.0 1.0 0.02 0.14 0.14 99 1012.3
20260903143920 55 56 1.0 2.0 0.02 0.14 0.14 99 1012.6
20260903143416 54 149 0.0 1.0 0.00 0.13 0.13 99 1012.5
20260903142911 54 173 0.0 1.0 0.00 0.13 0.13 99 1012.5
20260903142407 54 173 0.0 1.0 0.02 0.13 0.13 99 1012.5
20260903141903 54 239 0.0 2.0 0.02 0.13 0.13 99 1012.6
20260903141358 54 34 0.0 1.0 0.00 0.13 0.13 99 1012.6
20260903140854 54 57 1.0 2.0 0.05 0.13 0.13 99 1012.4
20260903140349 54 64 2.0 3.0 0.05 0.13 0.13 99 1012.4
20260903135844 54 55 1.0 1.0 0.05 0.12 0.12 99 1012.6
20260903135340 54 261 1.0 2.0 0.07 0.12 0.12 99 1012.6
20260903134838 54 218 0.0 1.0 0.05 0.11 0.11 98 1012.4
20260903134334 54 38 1.0 2.0 0.05 0.11 0.11 99 1012.6
20260903133831 54 76 1.0 2.0 0.05 0.10 0.10 99 1012.4
20260903133327 54 25 0.0 2.0 0.05 0.10 0.10 99 1012.5
20260903132822 54 324 2.0 5.0 0.07 0.09 0.09 99 1012.4
20260903132318 54 306 2.0 4.0 0.05 0.09 0.09 99 1012.5
20260903131813 54 276 2.0 4.0 0.05 0.08 0.08 99 1012.6